Location: Albany
(35.0000°S, 118.0000°E)
Time: 10:17:10
(UTC-04:00)

Transit 2A - Visible Passes

Search period start: 05 September 2015 00:00
Search period end: 15 September 2015 00:00
Orbit: 599 x 961 km, 66.7° (Epoch: 04 September)

Date Brightness Start Highest point End Pass type
(mag) Time Alt. Az. Time Alt. Az. Time Alt. Az.
05 Sep 8.1 06:20:22 10° SSE 06:23:31 14° SE 06:27:00 10° ESE visible
05 Sep 6.3 08:01:31 10° SSW 08:07:52 79° ESE 08:07:52 79° ESE visible
05 Sep 9.0 09:47:03 10° WSW 09:48:26 13° W 09:48:26 13° W visible
06 Sep 6.5 07:27:45 10° SSW 07:33:57 56° ESE 07:35:53 41° ENE visible
06 Sep 8.4 09:12:04 10° WSW 09:16:28 22° W 09:16:28 22° W visible
07 Sep 6.9 06:54:04 10° SSW 06:59:58 40° SE 07:04:05 19° ENE visible
07 Sep 7.9 08:37:35 10° SW 08:43:12 32° WNW 08:44:41 29° NW visible
08 Sep 7.4 06:20:32 10° S 06:25:54 29° SE 06:31:26 10° ENE visible
08 Sep 7.3 08:03:22 10° SW 08:09:27 47° WNW 08:13:06 23° N visible
09 Sep 6.8 07:29:19 10° SSW 07:35:39 67° WNW 07:41:47 11° NNE visible
10 Sep 6.5 06:55:25 10° SSW 07:01:49 86° ESE 07:08:11 10° NNE visible
10 Sep 9.1 08:41:30 10° WSW 08:44:30 13° WNW 08:47:03 10° NW visible
11 Sep 6.5 06:21:37 10° SSW 06:27:55 62° ESE 06:34:13 10° NE visible
11 Sep 8.8 08:06:14 10° WSW 08:10:49 20° WNW 08:15:05 10° NNW visible
12 Sep 8.3 07:31:39 10° SW 07:37:06 29° WNW 07:42:21 10° NNW visible
13 Sep 7.8 06:57:22 10° SW 07:03:21 42° WNW 07:09:12 10° N visible
14 Sep 7.2 06:23:17 10° SW 06:29:34 61° WNW 06:35:46 10° N visible
